TimeMST,TemperatureF,Dew PointF,Humidity,Sea Level PressureIn,VisibilityMPH,Wind Direction,Wind SpeedMPH,Gust SpeedMPH,PrecipitationIn,Events,Conditions,WindDirDegrees,DateUTC
12:16 AM,-13.0,-18.4,77,30.09,-9999.0,Calm,Calm,-,N/A,,Mostly Cloudy,0,2013-01-08 07:16:00
12:35 AM,-9.4,-16.6,71,30.09,-9999.0,Calm,Calm,-,N/A,,Overcast,0,2013-01-08 07:35:00
12:56 AM,-9.4,-18.4,65,30.10,-9999.0,Calm,Calm,-,N/A,,Overcast,0,2013-01-08 07:56:00
1:15 AM,-9.4,-16.6,71,30.09,-9999.0,Calm,Calm,-,N/A,,Mostly Cloudy,0,2013-01-08 08:15:00
1:36 AM,-9.4,-16.6,71,30.09,-9999.0,Calm,Calm,-,N/A,,Scattered Clouds,0,2013-01-08 08:36:00
1:56 AM,-9.4,-16.6,71,30.08,-9999.0,SE,5.8,-,N/A,,Clear,130,2013-01-08 08:56:00
2:16 AM,-9.4,-16.6,71,30.09,-9999.0,Calm,Calm,-,N/A,,Mostly Cloudy,0,2013-01-08 09:16:00
2:36 AM,-9.4,-16.6,71,30.09,-9999.0,Calm,Calm,-,N/A,,Overcast,0,2013-01-08 09:36:00
2:55 AM,-7.6,-14.8,71,30.08,-9999.0,Calm,Calm,-,N/A,,Overcast,0,2013-01-08 09:55:00
3:16 AM,-7.6,-14.8,71,30.09,-9999.0,Calm,Calm,-,N/A,,Scattered Clouds,0,2013-01-08 10:16:00
3:36 AM,-7.6,-14.8,71,30.09,-9999.0,WSW,3.5,-,N/A,,Mostly Cloudy,250,2013-01-08 10:36:00
3:56 AM,-7.6,-14.8,71,30.09,-9999.0,Calm,Calm,-,N/A,,Scattered Clouds,0,2013-01-08 10:56:00
4:16 AM,-7.6,-14.8,71,30.10,-9999.0,Calm,Calm,-,N/A,,Scattered Clouds,0,2013-01-08 11:16:00
4:36 AM,-7.6,-14.8,71,30.10,-9999.0,Calm,Calm,-,N/A,,Mostly Cloudy,0,2013-01-08 11:36:00
4:56 AM,-7.6,-14.8,71,30.11,-9999.0,Calm,Calm,-,N/A,,Overcast,0,2013-01-08 11:56:00
5:16 AM,-5.8,-13.0,71,30.11,-9999.0,Calm,Calm,-,N/A,,Overcast,0,2013-01-08 12:16:00
5:36 AM,-5.8,-13.0,71,30.11,-9999.0,Calm,Calm,-,N/A,,Overcast,0,2013-01-08 12:36:00
5:56 AM,-5.8,-13.0,71,30.12,-9999.0,Calm,Calm,-,N/A,,Overcast,0,2013-01-08 12:56:00
6:16 AM,-4.0,-11.2,71,30.11,-9999.0,Calm,Calm,-,N/A,,Overcast,0,2013-01-08 13:16:00
6:36 AM,-4.0,-11.2,71,30.13,-9999.0,Calm,Calm,-,N/A,,Overcast,0,2013-01-08 13:36:00
6:56 AM,-2.2,-9.4,71,30.14,-9999.0,Calm,Calm,-,N/A,,Overcast,0,2013-01-08 13:56:00
7:16 AM,-2.2,-9.4,71,30.14,-9999.0,Calm,Calm,-,N/A,,Overcast,0,2013-01-08 14:16:00
7:35 AM,-2.2,-9.4,71,30.14,-9999.0,South,3.5,-,N/A,,Overcast,170,2013-01-08 14:35:00
7:56 AM,-2.2,-9.4,71,30.15,-9999.0,Calm,Calm,-,N/A,,Overcast,0,2013-01-08 14:56:00
8:16 AM,-4.0,-11.2,71,30.16,-9999.0,Calm,Calm,-,N/A,,Mostly Cloudy,0,2013-01-08 15:16:00
8:36 AM,-2.2,-9.4,71,30.17,-9999.0,Calm,Calm,-,N/A,,Scattered Clouds,0,2013-01-08 15:36:00
8:56 AM,-0.4,-9.4,66,30.18,-9999.0,Calm,Calm,-,N/A,,Mostly Cloudy,0,2013-01-08 15:56:00
9:16 AM,1.4,-9.4,61,30.18,-9999.0,Calm,Calm,-,N/A,,Overcast,0,2013-01-08 16:16:00
9:36 AM,3.2,-7.6,61,30.19,-9999.0,Calm,Calm,-,N/A,,Overcast,0,2013-01-08 16:36:00
9:56 AM,3.2,-7.6,61,30.20,-9999.0,Calm,Calm,-,N/A,,Overcast,0,2013-01-08 16:56:00
10:16 AM,5.0,-5.8,61,30.20,-9999.0,Calm,Calm,-,N/A,,Overcast,0,2013-01-08 17:16:00
10:56 AM,5.0,-5.8,61,30.21,-9999.0,Calm,Calm,-,N/A,,Overcast,0,2013-01-08 17:56:00
11:16 AM,10.4,-2.2,57,30.20,-9999.0,Calm,Calm,-,N/A,,Overcast,0,2013-01-08 18:16:00
11:36 AM,12.2,-0.4,57,30.20,-9999.0,NNE,3.5,-,N/A,,Overcast,30,2013-01-08 18:36:00
11:56 AM,10.4,-4.0,52,30.19,-9999.0,Calm,Calm,-,N/A,,Overcast,0,2013-01-08 18:56:00
12:16 PM,12.2,-0.4,57,30.18,-9999.0,Calm,Calm,-,N/A,,Overcast,0,2013-01-08 19:16:00
12:56 PM,14.0,1.4,57,30.19,-9999.0,Calm,Calm,-,N/A,,Overcast,0,2013-01-08 19:56:00
1:16 PM,14.0,1.4,57,30.19,-9999.0,Calm,Calm,-,N/A,,Overcast,0,2013-01-08 20:16:00
1:36 PM,14.0,1.4,57,30.20,-9999.0,Calm,Calm,-,N/A,,Overcast,0,2013-01-08 20:36:00
1:56 PM,14.0,1.4,57,30.20,-9999.0,Calm,Calm,-,N/A,,Overcast,0,2013-01-08 20:56:00
2:16 PM,17.6,1.4,49,30.21,-9999.0,Calm,Calm,-,N/A,,Overcast,0,2013-01-08 21:16:00
2:36 PM,17.6,1.4,49,30.20,-9999.0,Calm,Calm,-,N/A,,Scattered Clouds,0,2013-01-08 21:36:00
2:56 PM,17.6,1.4,49,30.21,-9999.0,Calm,Calm,-,N/A,,Mostly Cloudy,0,2013-01-08 21:56:00
3:16 PM,17.6,1.4,49,30.22,-9999.0,Calm,Calm,-,N/A,,Overcast,0,2013-01-08 22:16:00
3:36 PM,17.6,3.2,53,30.23,-9999.0,Calm,Calm,-,N/A,,Overcast,0,2013-01-08 22:36:00
3:56 PM,17.6,3.2,53,30.23,-9999.0,Calm,Calm,-,N/A,,Overcast,0,2013-01-08 22:56:00
4:16 PM,17.6,5.0,58,30.24,-9999.0,Calm,Calm,-,N/A,,Mostly Cloudy,0,2013-01-08 23:16:00
4:36 PM,14.0,1.4,57,30.26,-9999.0,WSW,4.6,-,N/A,,Scattered Clouds,250,2013-01-08 23:36:00
4:56 PM,12.2,1.4,62,30.26,-9999.0,WSW,4.6,-,N/A,,Scattered Clouds,240,2013-01-08 23:56:00
5:15 PM,10.4,-0.4,62,30.27,-9999.0,Calm,Calm,-,N/A,,Scattered Clouds,0,2013-01-09 00:15:00
5:36 PM,8.6,-0.4,67,30.28,-9999.0,ENE,3.5,-,N/A,,Clear,70,2013-01-09 00:36:00
5:56 PM,6.8,-0.4,72,30.28,-9999.0,Calm,Calm,-,N/A,,Clear,0,2013-01-09 00:56:00
6:15 PM,8.6,-0.4,67,30.29,-9999.0,East,3.5,-,N/A,,Clear,90,2013-01-09 01:15:00
6:36 PM,5.0,-0.4,78,30.29,-9999.0,Calm,Calm,-,N/A,,Clear,0,2013-01-09 01:36:00
6:55 PM,3.2,-4.0,72,30.30,-9999.0,Calm,Calm,-,N/A,,Clear,0,2013-01-09 01:55:00
7:16 PM,5.0,-0.4,78,30.31,-9999.0,Calm,Calm,-,N/A,,Scattered Clouds,0,2013-01-09 02:16:00
7:36 PM,3.2,-4.0,72,30.32,-9999.0,Calm,Calm,-,N/A,,Scattered Clouds,0,2013-01-09 02:36:00
7:56 PM,3.2,-4.0,72,30.33,-9999.0,Calm,Calm,-,N/A,,Mostly Cloudy,0,2013-01-09 02:56:00
8:36 PM,1.4,-4.0,78,30.36,-9999.0,Calm,Calm,-,N/A,,Scattered Clouds,0,2013-01-09 03:36:00
9:16 PM,-0.4,-5.8,78,30.40,-9999.0,Calm,Calm,-,N/A,,Clear,0,2013-01-09 04:16:00
9:36 PM,-0.4,-5.8,78,30.40,-9999.0,Calm,Calm,-,N/A,,Clear,0,2013-01-09 04:36:00
9:56 PM,-0.4,-5.8,78,30.41,-9999.0,Calm,Calm,-,N/A,,Clear,0,2013-01-09 04:56:00
10:16 PM,-0.4,-7.6,72,30.42,-9999.0,Calm,Calm,-,N/A,,Clear,0,2013-01-09 05:16:00
10:55 PM,-2.2,-7.6,78,30.44,-9999.0,Calm,Calm,-,N/A,,Clear,0,2013-01-09 05:55:00
11:16 PM,-4.0,-9.4,78,30.44,-9999.0,WNW,3.5,-,N/A,,Clear,300,2013-01-09 06:16:00
11:35 PM,-4.0,-11.2,71,30.44,-9999.0,Calm,Calm,-,N/A,,Clear,0,2013-01-09 06:35:00
11:56 PM,-4.0,-7.6,85,30.43,-9999.0,ENE,3.5,-,N/A,,Clear,70,2013-01-09 06:56:00